Regional Weather Roundup
Issued by NWS

Home | Current Version | Previous Version | Text Only | Print | Product List | Glossary Off
Versions: 1 2 3 4 5 6 7 8 9 10 11 12 13 14 15 16 17 18 19 20 21 22 23 24 25 26 27 28 29 30 31 32 33 34 35 36 37 38 39 40 41 42 43 44 45 46 47 48 49 50

000
ASUS43 KTOP 281659
RWRKS

WEATHER ROUNDUP FOR KANSAS
NATIONAL WEATHER SERVICE GOODLAND KS
1200 PM CDT TUE JUL 28 2015

NOTE:  "FAIR" INDICATES FEW OR NO CLOUDS BELOW 12,000 FEET WITH NO
SIGNIFICANT WEATHER AND/OR OBSTRUCTIONS TO VISIBILITY.

KSZ001>006-013>018-027>032-041>047-281800-
NORTHWEST KANSAS

CITY           SKY/WX    TMP DP  RH WIND       PRES   REMARKS
GOODLAND       SUNNY     79  41  25 N23G37    30.06R
HAYS           SUNNY     88  66  48 N17       29.86R
HILL CITY      SUNNY     83  60  45 N24G35    29.94R
RUSSELL        SUNNY     89  70  53 SW10      29.84R
$$

KSZ061>065-074>080-084>089-281800-
SOUTHWEST KANSAS

CITY           SKY/WX    TMP DP  RH WIND       PRES   REMARKS
DODGE CITY     SUNNY     87  62  43 N10G21    29.92R
ELKHART          N/A     84  50  30 N15         N/A
GARDEN CITY    SUNNY     83  58  42 N21G30    29.96R
GREAT BEND     SUNNY     93  66  40 W17       29.84S HX  96
LIBERAL        SUNNY     86  61  42 N22       29.95R
$$

KSZ066>073-081>083-090>101-281800-
SOUTHEAST KANSAS

CITY           SKY/WX    TMP DP  RH WIND       PRES   REMARKS
CHANUTE        SUNNY     92  72  51 S13G24    29.94S HX  99
COFFEYVILLE    SUNNY     92  73  53 S14G21    29.93S HX 100
HUTCHINSON     SUNNY     97  66  36 S18       29.85F HX 100
MEDICINE LODGE   N/A     92  69  47 S12       29.86S HX  97
NEWTON         SUNNY     93  68  43 S18       29.92R HX  97
PARSONS        SUNNY     91  74  57 S15G21    29.95S HX 100
WICHITA INTL   MOSUNNY   94  70  45 S15G24    29.88R HX 100
WICHITA JABRA  SUNNY     92  69  47 S17       29.89R HX  97
WINFIELD       SUNNY     93  71  48 S13       29.91S HX 100
$$

KSZ007>012-019>026-033>040-048>060-102>105-281800-
NORTHEAST KANSAS

CITY           SKY/WX    TMP DP  RH WIND       PRES   REMARKS
CONCORDIA      SUNNY     91  69  48 SW10      29.84R HX  96
EMPORIA        SUNNY     95  68  41 S20G25    29.89S HX  99
LAWRENCE       SUNNY     92  72  51 S10       29.90S HX  99
MANHATTAN      SUNNY     95  71  45 SW13      29.84R HX 102
OLATHE IND     SUNNY     92  72  51 S17       29.93S HX  99
OLATHE EXE     SUNNY     90  74  59 S14G21    29.92F HX  99
SALINA         SUNNY     97  68  38 S15       29.83R HX 102
TOPEKA BILLARD SUNNY     92  72  51 S13G18    29.88S HX  99
TOPEKA FORBES  SUNNY     94  71  47 S15G24    29.89R HX 101
$$


USA.gov is the U.S. government's official web portal to all federal, state and local government web resources and services.